Track STARLINK-2150 now! 10-day predictions STARLINK-2150 is classified as:
1 47739U 21017T 22224.72763853 .00011849 00000-0 81269-3 0 9996 2 47739 53.0543 324.8358 0001174 89.7749 270.3375 15.06413837 80881